Regional Weather Roundup
Issued by NWS

Home | Current Version | Previous Version | Text Only | Print | Product List | Glossary On
Versions: 1 2 3 4 5 6 7 8 9 10 11 12 13 14 15 16 17 18 19 20 21 22 23 24 25 26 27 28 29 30 31 32 33 34 35 36 37 38 39 40 41 42 43 44 45 46 47 48 49 50
459
ASUS43 KMPX 271810
RWRMN
WEATHER ROUNDUP FOR MINNESOTA
NATIONAL WEATHER SERVICE TWIN CITIES/CHANHASSEN MN
100 PM CDT MON MAR 27 2017


NOTE: "FAIR" INDICATES FEW OR NO CLOUDS BELOW 12,000 FEET WITH NO
SIGNIFICANT WEATHER AND/OR OBSTRUCTIONS TO VISIBILITY. N/A MEANS
CURRENT SKY AND/OR WEATHER CONDITIONS ARE NOT AVAILABLE.

MNZ060>063-068>070-271900-
   Twin Cities Metro

CITY           SKY/WX    TMP DP  RH WIND       PRES   REMARKS
TWIN CITIES    MOSUNNY   53  34  48 N6        29.97F
6HR MIN TEMP:  38; 6HR MAX TEMP:  53;

ST PAUL        SUNNY     52  36  54 NE9       29.97F
CRYSTAL        SUNNY     53  32  44 VRB7      29.96S
BLAINE         MOSUNNY   55  34  44 N5        29.97S
LAKEVILLE        N/A     48  37  66 NE5       29.97F
EDEN PRAIRIE   MOSUNNY   54  35  48 N7        29.96F
6HR MIN TEMP:  39; 6HR MAX TEMP:  54;

SOUTH ST PAUL  MOSUNNY   52  36  54 N8        29.97F
LAKE ELMO      CLOUDY    50  37  62 NE3       29.98S
$$
MNZ001>005-007-008-013>017-022>024-027-028-271900-
   Northwest Minnesota

CITY           SKY/WX    TMP DP  RH WIND       PRES   REMARKS
BEMIDJI        SUNNY     49  34  56 SE5       29.98F
HALLOCK        FOG       36  34  93 W3        30.02S VSB 1/2
ROSEAU         SUNNY     46  39  76 CALM      30.00S
WARROAD        SUNNY     45  37  76 E5        30.01S
THIEF RVR FALL CLOUDY   N/A N/A N/A NE3       30.01F FOG
CROOKSTON      CLOUDY    39  39 100 SE3       30.01F FOG
FOSSTON        SUNNY     52  39  62 N6        29.99F
DETROIT LAKES  SUNNY     52  34  50 CALM      29.98F
MOORHEAD       SUNNY     50  41  71 CALM      29.99F
PARK RAPIDS    SUNNY     52  34  50 SE5       29.96F
MAHNOMEN       FAIR      48  39  69 CALM      29.98F
$$
MNZ006-009>011-018-025>026-271900-
   North Central Minnesota

CITY           SKY/WX    TMP DP  RH WIND       PRES   REMARKS
BAUDETTE       SUNNY     49  34  56 SW3       29.99F
FLAG ISLAND    MOSUNNY   39  30  70 CALM      30.01S
INTL FALLS     SUNNY     50  34  54 N8        29.99S
6HR MIN TEMP:  25; 6HR MAX TEMP:  50;

WASKISH        MOSUNNY   48  37  66 W6        29.99F
BIG FORK       SUNNY     52  34  50 NE5       29.98F
LONGVILLE      CLOUDY    52  34  50 CALM      29.97F
GRAND RAPIDS   SUNNY     49  35  58 W5        29.99F
CRANE LAKE     SUNNY     46  30  53 NW3       30.00F
ORR            SUNNY     50  28  43 CALM      29.96F
COOK           SUNNY     48  34  57 N5        29.98F
WALKER         FAIR      47  34  59 NE5       29.98F
$$
MNZ012-019>021-037-271900-
   Northeast Minnesota

CITY           SKY/WX    TMP DP  RH WIND       PRES   REMARKS
DULUTH         PTSUNNY   47  35  63 VRB5      29.96F
6HR MIN TEMP:  33; 6HR MAX TEMP:  48;

ELY            CLOUDY    46  30  53 CALM      29.98S
HIBBING        SUNNY     47  34  60 N5        29.98S
EVELETH        SUNNY     46  32  56 CALM      29.98F
DULUTH HARBOR  MOSUNNY   45  37  76 CALM      29.99S
TWO HARBORS    CLOUDY    52  39  62 CALM      29.95S
SILVER BAY     CLOUDY    46  36  66 CALM      29.95S
GRAND MARAIS     N/A     40  34  79 VRB3      29.98R
G MARAIS ARPRT CLOUDY    45  28  53 N5        29.96R
$$
MNZ029>031-032-039>041-046>048-054>057-064-271900-
   West Central Minnesota

CITY           SKY/WX    TMP DP  RH WIND       PRES   REMARKS
FERGUS FALLS   SUNNY     52  37  58 CALM      30.01F
WHEATON        SUNNY     52  37  58 SE8       30.00F
MORRIS         MOSUNNY   54  37  54 SE3       29.97F
ALEXANDRIA     CLOUDY    50  35  56 E5        29.98F
ELBOW LAKE     PTSUNNY   50  37  62 SE3       29.99F
WADENA         SUNNY     52  36  54 E7        29.97F
GLENWOOD       MOSUNNY   52  36  54 CALM      29.99S
APPLETON       MOSUNNY   50  37  62 CALM      29.98F
BENSON         MOSUNNY   54  34  47 CALM      30.00F
ORTONVILLE     PTSUNNY   50  37  62 CALM      29.98F
MADISON        CLOUDY    52  41  66 CALM      29.99F
WILLMAR        FAIR      52  37  58 NW3       29.99F
$$
MNZ033>034-036-042>043-049>051-058-059-271900-
   Central Minnesota

CITY           SKY/WX    TMP DP  RH WIND       PRES   REMARKS
ST CLOUD       CLOUDY    49  37  63 VRB3      29.98R
6HR MIN TEMP:  32; 6HR MAX TEMP:  49;

SAUK CENTRE    FAIR      49  34  56 E3        29.99S
PAYNESVILLE      N/A     51  34  53 CALM      29.99R
AITKIN         CLOUDY    52  30  43 CALM      29.96F
PINE RIVER     CLOUDY    50  36  57 S3        30.01F
BRAINERD       CLOUDY    50  33  52 W5        29.98S
STAPLES        CLOUDY    52  32  46 CALM      29.98F
LONG PRAIRIE   PTSUNNY   48  32  53 CALM      29.98F
LITTLE FALLS   CLOUDY    50  32  50 CALM      29.98S
LITCHFIELD     SUNNY     54  37  54 CALM      29.98F
BUFFALO        CLOUDY    52  35  52 NE3       29.99S
MAPLE LAKE     MOSUNNY   53  39  59 CALM      29.98F
HUTCHINSON     CLOUDY    52  37  57 N3        29.99S
$$
MNZ037-044-045-052-053-271900-
   East Central Minnesota

CITY           SKY/WX    TMP DP  RH WIND       PRES   REMARKS
PRINCETON      CLOUDY    52  37  58 NE5       29.98S
MORA           CLOUDY    50  36  57 N3        29.99S
CAMBRIDGE      CLOUDY    52  37  58 N3        29.96S
RUSH CITY      CLOUDY    49  37  63 N3        29.98S
MOOSE LAKE     CLOUDY    46  34  61 CALM      29.96F
CLOQUET        CLOUDY    46  34  61 N5        29.97S
MCGREGOR       CLOUDY    46  36  66 CALM      29.98F
$$
MNZ071>073-080-081-089-090-097-098-271900-
   Southwest Minnesota

CITY           SKY/WX    TMP DP  RH WIND       PRES   REMARKS
MONTEVIDEO     PTSUNNY   55  39  54 N6        30.00F
GRANITE FALLS  MOSUNNY   54  40  59 CALM      30.00F
CANBY          PTSUNNY   52  39  61 CALM      29.99F
MARSHALL       PTSUNNY   50  37  61 W6        29.98F
REDWOOD FALLS  PTSUNNY   54  38  54 NE6       29.98S
OLIVIA         MOSUNNY   54  37  54 CALM      29.97F
PIPESTONE      MOSUNNY   50  36  57 N3        29.96F
WINDOM         MOSUNNY   48  37  66 N8        29.98S
WORTHINGTON    CLOUDY    45  37  73 N7        29.99S
JACKSON        CLOUDY    45  37  76 N6        29.98S
TRACY          PTSUNNY   51  39  64 CALM      29.98F
SLAYTON        PTSUNNY   46  37  72 N3        29.99S
$$
MNZ065>067-074>077-082>085-091>093-271900-
   South Central Minnesota

CITY           SKY/WX    TMP DP  RH WIND       PRES   REMARKS
MANKATO        CLOUDY    49  38  65 NE8       29.98F
NEW ULM        CLOUDY    50  37  62 N6        29.98F
ST JAMES       CLOUDY    48  37  66 CALM      30.00S
FAIRMONT       CLOUDY    47  40  76 NE9       29.98S
GLENCOE        MOSUNNY   52  41  66 N3        29.97S
FARIBAULT      CLOUDY    46  39  76 N6        29.98S
OWATONNA       CLOUDY    45  37  76 NE8       29.98S
WASECA         CLOUDY    45  37  76 NE13      29.98F
ALBERT LEA     CLOUDY    43  37  81 N8        29.97R
$$
MNZ078>079-086>088-094>096-271900-
   Southeast Minnesota

CITY           SKY/WX    TMP DP  RH WIND       PRES   REMARKS
ROCHESTER      CLOUDY    43  39  86 N6        29.96R
6HR MIN TEMP:  37; 6HR MAX TEMP:  43;

RED WING       CLOUDY    46  36  66 NE5       29.97S
STANTON        CLOUDY    47  39  73 N7        29.96S
DODGE CENTER   CLOUDY    41  37  87 N7        29.96S
WINONA         CLOUDY    43  39  87 CALM      29.98R
AUSTIN         CLOUDY    43  37  81 NE6       29.96S
PRESTON        CLOUDY    42  37  84 N6        29.96R
$$
ABBREVIATIONS USED IN REMARKS
   TC - TEMPERATURES IN CELSIUS
  WCI - WIND CHILL INDEX
   HX - HEAT INDEX
  VSB - VISIBILITY
$$




USA.gov is the U.S. government's official web portal to all federal, state and local government web resources and services.